Vertical_Velocity
3 3 3 1 -0 -1 -1 -2 -4 -5 -4 -2 -0 -0 -1 -2 -2 -3 -3 -3 -3 -3 -2 -2 -2 -1 -1 -1 -1 -1 0 -0 -1 -1 -2 -2 -2 -1 -1 -0 1 2 4 3 2 1 -1 -2 -0 2 4 4 5 4 1 -6 -9 -8 -1 3 4 3 0 0 0 -0 1 2 3 2 1 -1 -2 -2 -2 -1 -1 -2 -2 -4 -5 -4 -2 0 0 -0
2 1 2 1 1 0 0 -1 -2 -3 -3 -2 -1 -0 -0 -1 -1 -1 -2 -2 -3 -3 -2 -1 -1 -1 -1 -1 -1 -1 -1 -1 -1 -1 -1 -2 -2 -2 -1 -1 -0 1 3 3 2 1 -1 -1 0 2 4 4 3 1 -3 -8 -7 -4 1 3 3 1 -0 1 1 1 2 2 2 1 1 0 -1 -2 -2 -3 -3 -3 -4 -5 -5 -3 1 3 2 0
0 -1 0 1 1 1 1 -0 -1 -2 -2 -1 -0 0 0 -0 -0 -0 -1 -1 -2 -2 -1 -1 -0 -0 -0 -0 -1 -1 -1 -1 -1 -1 -2 -2 -2 -2 -1 -1 -1 -0 2 3 2 1 0 -1 -0 2 4 4 2 -1 -5 -6 -3 1 3 5 3 1 1 3 5 6 5 5 4 3 1 1 1 0 -1 -2 -3 -3 -4 -4 -3 -1 3 5 3 1
1 -1 -2 -1 0 2 2 1 0 -1 -1 -1 -0 0 0 -0 -0 0 0 -0 -1 -1 -0 0 0 0 1 0 -0 -1 -1 -1 -1 -1 -2 -2 -3 -2 -2 -2 -1 -1 0 3 3 2 1 0 0 1 4 4 2 -3 -8 -5 -2 1 1 2 2 1 3 6 7 8 8 8 7 6 4 3 2 2 2 1 -0 -1 -2 -3 -2 1 5 5 4 3
4 1 -2 -2 -1 0 2 2 1 -0 -1 -0 0 0 0 -0 -0 -0 0 0 0 0 0 1 1 1 1 1 0 -1 -1 -1 -1 -1 -2 -2 -2 -3 -2 -2 -2 -2 -1 1 2 2 2 1 1 1 3 2 -2 -7 -11 -6 -3 -1 -3 -3 -2 0 4 5 7 8 9 8 7 7 6 4 4 3 4 4 3 1 -0 -2 -0 2 5 5 5 4
6 4 1 -1 -1 0 2 2 1 -0 -1 -0 0 1 0 -0 -0 -0 -0 0 0 0 1 1 1 1 1 1 0 -1 -1 -1 -1 -1 -1 -2 -2 -2 -2 -2 -2 -2 -1 -1 1 2 2 1 0 -1 -2 -4 -7 -11 -11 -5 -3 -3 -5 -5 -4 -2 1 2 3 4 6 6 6 6 6 5 4 4 4 4 4 3 1 0 1 3 5 4 4 3
6 6 4 1 0 1 2 2 1 -1 -1 -1 0 1 1 -0 -1 -1 -1 -0 -0 0 0 1 1 1 1 0 -0 -1 -1 -1 -1 -1 -1 -1 -2 -2 -2 -2 -2 -1 -1 -1 -1 -0 0 -1 -3 -5 -6 -7 -8 -9 -7 -2 -1 -2 -4 -5 -5 -3 -2 -2 -1 -0 2 2 3 4 4 4 3 3 3 4 4 4 3 2 3 4 4 3 2 2
3 5 5 3 1 0 2 3 2 -1 -2 -1 -1 0 0 -0 -1 -1 -1 -1 -0 -0 -0 0 1 1 0 0 -0 -1 -1 -1 -1 -0 -1 -1 -1 -2 -2 -2 -2 -1 -1 -1 -2 -3 -4 -5 -7 -8 -7 -5 -4 -3 -2 0 1 -1 -3 -4 -4 -3 -3 -3 -3 -3 -2 -1 0 2 3 3 3 2 2 3 3 4 4 4 4 4 4 2 1 1
2 3 5 5 3 1 1 3 3 2 -1 -1 -1 -0 0 0 -0 -1 -1 -1 -1 -1 -1 -0 0 0 0 -0 -0 -1 -1 -1 -1 -0 -0 -1 -1 -1 -1 -2 -2 -2 -1 -2 -3 -5 -7 -8 -9 -9 -7 -4 -3 -2 -2 -2 -2 -3 -5 -5 -4 -3 -3 -3 -3 -3 -2 -1 -1 1 3 3 2 2 1 1 2 4 5 5 4 4 3 2 1 1
2 3 4 6 6 5 3 3 4 5 3 1 -0 -0 -0 -0 -0 -0 -0 -0 -1 -1 -2 -1 -0 0 -0 -1 -1 -1 -0 -0 -0 -0 -0 -0 -0 -1 -1 -1 -2 -3 -3 -3 -4 -6 -7 -8 -8 -7 -6 -4 -3 -2 -2 -2 -2 -3 -4 -4 -4 -3 -2 -2 -2 -2 -2 -1 0 2 3 3 3 1 0 0 1 3 5 5 5 4 3 2 1 1
0 2 3 4 5 5 4 3 4 4 4 2 1 -0 -1 -1 -1 -1 1 1 0 -1 -2 -2 -1 -0 -0 -1 -1 -0 -0 -0 -0 -0 -0 0 0 0 -1 -1 -2 -3 -4 -5 -5 -6 -6 -6 -6 -6 -5 -4 -2 -1 -1 -1 -1 -1 -2 -2 -1 -0 0 0 -0 -1 -1 -0 1 2 4 4 3 1 0 1 1 3 4 5 5 5 3 1 1 1
-1 -1 0 1 1 1 1 -0 0 1 2 1 1 0 -0 -1 -2 -1 0 2 1 -0 -2 -2 -1 -0 -0 -1 -0 -0 -0 -0 0 0 0 1 0 -0 -1 -1 -2 -3 -3 -4 -4 -5 -5 -5 -6 -6 -5 -3 -2 -1 -2 -2 -2 -2 -1 -0 1 2 2 3 3 2 2 1 2 2 4 4 3 2 0 1 2 3 4 5 5 4 2 0 -0 0
-4 -3 -3 -2 -2 -2 -2 -3 -3 -2 -0 0 0 0 1 0 -1 -1 -1 1 1 1 -1 -1 -1 -0 -1 -1 -1 -0 0 0 1 1 1 1 0 -0 -1 -2 -2 -3 -3 -3 -3 -3 -4 -5 -5 -5 -5 -4 -3 -3 -4 -5 -5 -4 -3 -1 -0 1 2 3 5 6 5 5 4 4 4 4 3 2 0 1 2 3 4 5 5 4 1 -1 -1 -1
-7 -6 -5 -3 -2 -2 -2 -2 -2 -2 -1 0 0 0 1 0 -0 -1 -1 0 1 0 -0 0 0 0 -1 -1 -0 0 0 1 1 1 0 0 0 -0 -1 -1 -2 -2 -2 -3 -3 -4 -4 -4 -4 -5 -5 -3 -3 -3 -3 -5 -5 -5 -4 -3 -2 -1 1 3 4 6 7 7 7 6 6 5 3 2 1 1 1 2 3 4 4 3 -0 -2 -3 -2
-3 -2 -2 -0 1 2 1 0 -0 -1 -0 0 0 0 0 0 -0 -1 -1 -1 0 0 1 1 1 0 -1 -1 -0 0 1 1 1 1 1 1 0 -0 -1 -1 -1 -1 -1 -2 -2 -3 -3 -3 -4 -5 -4 -3 -2 -2 -3 -4 -4 -4 -4 -3 -2 -2 -1 1 3 4 6 7 7 7 7 6 4 2 1 1 1 2 3 3 3 2 0 -2 -3 -4
2 2 1 2 3 4 4 3 1 0 -0 0 0 1 1 0 -0 -1 -1 -1 0 1 1 2 1 1 -1 -1 -1 0 1 1 2 2 2 1 0 -0 -1 -1 -1 -2 -2 -2 -1 -1 -1 -2 -3 -3 -2 -3 -3 -3 -3 -4 -5 -4 -3 -3 -2 -2 -1 1 2 3 4 5 6 7 7 7 5 3 1 1 1 1 2 2 3 2 1 -1 -2 -3
3 2 1 2 3 3 3 2 1 0 -0 -0 0 1 1 1 -0 -1 -1 -1 0 1 2 2 2 1 -1 -2 -1 -0 1 2 2 2 2 1 0 -0 -0 -1 -1 -1 -1 -1 -1 -1 -3 -4 -3 -2 -1 -2 -2 -2 -2 -3 -4 -4 -3 -2 -1 -1 -0 1 2 2 2 2 3 4 5 6 5 4 2 1 1 1 1 1 2 2 1 0 -1 -3
2 2 0 0 1 2 3 2 0 -1 -1 -0 -0 0 1 0 -0 -1 -1 -0 1 2 2 2 2 1 -1 -2 -2 -1 1 2 2 2 2 1 1 0 0 0 1 1 1 1 0 -1 -3 -3 -3 -3 -3 -2 -1 -1 -3 -4 -4 -4 -3 -2 -1 -1 0 1 2 3 2 1 1 1 2 3 3 2 1 1 1 1 1 1 1 1 1 -0 -1 -2
2 2 0 -1 0 1 3 2 0 -1 -1 -1 -0 0 1 0 -1 -1 -1 0 1 2 2 2 2 1 -1 -3 -3 -2 -0 1 2 2 2 2 1 0 1 1 1 2 1 0 -0 -1 -1 0 1 0 -2 -2 -3 -4 -5 -4 -5 -5 -4 -3 -2 -2 -1 1 2 3 3 2 1 -0 -1 -1 -1 -0 -0 -0 0 0 0 0 1 1 0 -1 -2 -3
1 2 2 1 -0 0 2 2 1 -0 -1 -1 -0 0 0 0 0 -0 0 1 1 2 2 2 1 -1 -2 -3 -3 -2 -0 1 2 2 3 2 2 2 2 2 2 2 1 1 0 -0 -1 -0 -0 -0 -0 -1 -3 -4 -4 -4 -4 -5 -4 -3 -2 -2 -1 0 2 3 3 3 2 1 -0 -2 -2 -3 -3 -2 -1 -0 0 0 0 -0 -1 -2 -3 -3
-1 2 4 2 1 0 1 2 1 0 -1 -1 -0 0 0 0 0 0 0 1 1 1 1 1 -1 -2 -4 -3 -3 -2 0 2 3 4 4 3 2 2 2 3 4 4 3 2 1 1 0 -0 -1 -3 -3 -3 -3 -3 -2 -3 -4 -4 -4 -3 -2 -1 -0 1 2 3 4 4 3 3 2 0 -1 -3 -3 -3 -2 -1 0 0 -0 -1 -2 -3 -3 -3
0 2 3 3 2 2 1 2 2 1 -0 -0 -0 0 0 0 0 -0 -0 -1 -1 -1 -1 -1 -2 -3 -3 -2 -2 -2 1 2 3 4 4 3 2 2 2 4 4 4 3 2 1 0 0 1 1 0 -1 -2 -2 -2 -2 -2 -3 -4 -4 -2 -1 -1 0 1 2 3 4 4 4 4 3 2 1 -1 -2 -2 -1 -0 0 0 0 -1 -2 -3 -3 -3
-0 -0 0 1 1 1 1 2 2 1 1 0 0 0 1 0 -0 -0 -1 -1 -1 -1 -1 -1 -1 -1 -1 -2 -2 -1 1 2 3 3 3 4 3 2 3 4 5 4 3 1 1 1 2 2 1 1 1 1 -0 -1 -1 -2 -3 -3 -4 -3 -2 -1 -0 1 2 3 4 4 4 4 4 4 3 2 1 0 0 1 1 1 1 -0 -2 -3 -4 -3
-2 -2 -2 -1 -1 0 0 1 1 2 1 1 1 1 1 0 -0 -1 -1 -1 -1 -0 0 1 1 0 -1 -2 -2 -1 0 2 3 3 4 4 2 1 3 4 5 4 3 2 2 3 3 3 3 2 1 0 -1 -1 -1 -2 -2 -3 -4 -3 -2 -1 -0 1 2 3 3 4 4 4 4 4 4 3 3 3 2 3 3 3 2 0 -2 -3 -4 -3
-1 -2 -2 -2 -1 -0 -0 0 0 0 0 0 -0 -0 0 -0 -0 -1 -1 -1 -1 -0 1 2 2 0 -2 -2 -2 -1 -0 1 3 4 4 3 1 0 2 4 5 5 3 3 3 4 5 5 4 3 2 0 -1 -1 -1 -2 -2 -3 -3 -2 -1 -0 0 1 1 2 2 3 3 3 3 3 4 4 4 4 4 4 5 4 3 1 -1 -3 -4 -4
-0 -1 -1 -1 -1 -0 0 0 0 -0 -0 -0 -0 -0 0 -0 -0 -1 -1 -2 -2 -1 0 1 1 -1 -3 -2 -2 -1 -1 1 3 3 3 2 1 1 3 4 4 4 3 3 4 4 5 5 4 3 1 -0 -1 -1 -1 -1 -1 -2 -2 -2 -1 -1 -1 -1 -1 0 0 1 1 2 2 2 3 3 4 4 5 5 6 5 4 2 -1 -3 -4 -4
1 0 0 0 0 0 0 1 1 1 1 0 0 1 1 0 -0 -1 -2 -3 -3 -2 0 1 -0 -2 -2 -1 -1 -1 -1 1 2 3 2 2 1 1 2 3 4 4 3 3 4 5 5 5 4 2 0 0 0 -0 -1 -1 -1 -1 -2 -3 -3 -3 -3 -3 -3 -2 -2 -1 -1 -0 0 1 2 2 3 4 4 5 6 6 4 2 -0 -2 -4 -5
0 1 1 1 1 1 1 1 1 1 1 1 1 1 1 1 0 -1 -2 -3 -3 -1 1 0 -1 -1 -2 -1 -2 -1 -0 1 2 2 2 2 2 1 1 3 4 4 3 4 5 7 7 6 4 3 2 2 1 0 -1 -1 -1 -2 -3 -4 -4 -4 -3 -3 -3 -2 -2 -1 -1 -1 -0 -0 1 1 2 3 4 5 5 5 4 2 -0 -2 -3 -4
1 1 1 1 1 1 1 1 1 1 2 2 2 2 2 1 0 -1 -2 -2 -2 -1 0 -0 -1 -1 -1 -2 -1 -1 1 1 1 1 2 3 2 0 -0 3 4 4 3 4 5 6 5 4 3 3 2 2 1 -0 -1 -0 -1 -1 -2 -3 -2 -1 -1 -1 -0 -0 0 0 0 1 0 0 0 1 2 3 3 4 4 4 3 1 -1 -2 -3 -4
1 1 1 1 1 1 1 1 1 1 1 2 2 2 2 1 1 -0 -1 -2 -1 -1 -1 -1 -1 -1 -1 -0 1 1 1 -0 0 1 3 3 1 -1 0 3 4 4 3 3 3 4 3 3 2 2 2 2 1 0 0 -0 -1 -1 -2 -2 -1 0 1 1 1 1 1 2 2 2 2 2 2 2 2 3 3 3 3 2 1 -1 -2 -3 -3 -3
0 0 1 1 1 1 0 1 1 1 1 1 2 2 2 1 1 -0 -1 -1 -1 -1 -1 -1 -1 -0 0 1 2 1 -1 -1 0 2 2 1 -1 -2 1 4 4 4 3 3 3 4 5 5 4 4 4 4 3 2 1 -0 -1 -1 -1 -1 -0 0 0 0 0 0 1 2 2 3 3 3 3 3 3 3 3 3 2 1 -1 -3 -3 -3 -2 -1
-2 -1 -0 1 1 1 1 1 1 1 1 1 1 2 2 1 1 0 -1 -1 -1 -1 -1 -1 -1 -0 0 1 1 -1 -2 -2 0 1 2 0 -1 -1 1 3 4 4 3 4 5 5 6 4 4 4 5 3 3 2 2 1 0 0 0 0 -0 -1 -1 -1 -1 -0 0 0 1 2 2 3 3 3 4 4 4 3 2 -0 -2 -4 -4 -3 -2 -1
-2 -2 -1 0 1 1 1 1 1 1 0 1 1 1 1 1 1 0 -0 -1 -1 -1 -1 -1 -1 -0 0 1 0 -1 -2 -1 -0 1 1 0 -0 0 2 3 4 4 4 4 5 5 4 4 5 5 4 3 3 2 1 1 1 0 0 -0 -1 -1 -0 0 0 -1 -1 -1 -0 0 1 1 2 3 3 4 3 3 1 -1 -3 -4 -4 -4 -3 -2
-2 -1 -0 1 1 1 1 1 1 0 0 0 1 1 1 1 1 0 -0 -1 -1 -0 -0 -0 -0 -0 0 0 0 -1 -2 -1 0 1 2 2 1 1 2 4 4 4 4 4 4 4 2 2 3 4 4 5 5 3 1 -0 -1 -0 0 -1 -1 0 1 1 -0 -1 -2 -1 -1 -0 0 0 1 1 2 2 2 2 1 -1 -3 -4 -4 -4 -3 -2
-0 -0 0 1 1 1 1 0 0 0 0 0 1 1 1 1 1 0 -0 -1 -1 -0 -0 -0 -0 0 0 0 -0 -1 -2 -1 1 3 3 3 2 1 2 3 3 3 4 4 4 4 3 2 1 1 2 3 3 1 0 -0 0 1 1 1 1 1 0 -1 -3 -3 -2 -0 0 -0 -0 -0 0 0 1 1 1 1 0 -1 -2 -2 -3 -3 -3 -2
0 0 -0 0 1 1 1 0 0 0 0 0 1 1 1 1 1 0 -0 -1 -1 -1 -1 -0 0 0 1 0 -1 -2 -3 -1 2 3 3 2 1 1 1 2 2 3 4 4 3 3 3 3 4 5 5 3 1 0 1 2 3 4 2 2 2 2 0 -1 -1 -1 -0 0 -0 -1 -1 -1 -1 -1 -1 -0 -0 0 0 -0 -1 -1 -1 -1 -1 -1
0 -0 -1 -0 0 0 0 0 -0 -0 0 0 1 1 1 1 1 0 -0 -0 -1 -1 -1 -1 -0 0 1 0 -1 -2 -2 1 3 4 3 1 0 -1 -1 -1 0 2 3 3 2 2 2 2 3 4 4 3 3 3 3 3 2 1 -1 -2 -2 -1 -1 0 2 2 1 -2 -3 -3 -1 -1 -1 -1 -1 -1 -1 -1 -1 -1 -1 -1 -1 -0 0 1
-0 -1 -1 -1 -1 -0 0 -0 -1 -0 0 1 1 1 1 1 1 0 0 -0 -0 -1 -1 -1 -1 -0 -0 -0 -1 -1 0 3 4 4 3 1 -1 -2 -3 -2 -0 1 2 1 2 2 1 1 1 2 2 3 4 4 4 2 -1 -4 -5 -2 -1 -2 -3 -2 -1 -0 -1 -3 -2 -1 0 0 -0 -1 0 -0 -1 -1 -1 -2 -3 -2 -2 -1 -0 0
-0 -1 -2 -2 -1 -1 -0 -0 -0 -0 0 1 1 2 2 2 1 1 0 0 0 -0 -1 -1 -1 -1 -1 -1 -1 0 2 3 4 4 3 1 -1 -2 -3 -2 -0 1 1 1 1 1 1 2 3 4 5 5 4 3 3 2 1 1 4 7 8 7 2 1 -1 -2 -4 -2 1 3 2 0 0 0 0 -1 -2 -2 -2 -2 -2 -2 -1 -1 -1 -1
-1 -1 -1 -2 -2 -2 -1 -0 0 0 0 0 0 1 2 2 2 1 1 0 0 -0 -1 -1 -1 -1 -0 -0 0 1 2 3 3 3 2 1 -0 -1 -2 -1 -1 -0 0 1 1 1 1 2 3 4 5 3 1 -1 -1 -0 2 6 10 6 1 -3 -2 1 1 -0 -2 -1 -1 -2 -4 -3 -2 -1 -2 -3 -4 -4 -5 -4 -3 -2 -2 -2 -1 -0
-1 -0 -0 -1 -2 -3 -2 -1 0 1 2 -0 -1 -0 2 3 3 2 1 1 0 0 -0 -1 -1 -0 -0 0 1 2 2 3 3 2 2 0 -0 -1 -1 -2 -2 -1 -0 0 1 1 1 1 1 1 1 1 2 3 3 1 1 1 -0 -7 -12 -14 -9 -3 -1 -0 2 2 -1 -4 -6 -3 -2 -2 -4 -4 -3 -3 -3 -1 -0 -0 -2 -4 -5 -5
-1 -1 0 -0 -1 -2 -3 -2 -1 0 2 0 -1 -1 2 3 4 3 2 1 1 1 -0 -1 -1 -1 -0 0 1 2 2 2 2 1 1 -0 -1 -1 -2 -2 -2 -2 -1 -0 1 1 1 1 1 1 0 0 1 2 3 5 5 2 -3 -4 2 11 18 9 3 0 2 -0 -1 -1 1 2 2 1 -1 0 1 1 2 3 3 2 2 2 -0 -3
-1 -1 -0 -0 -0 -1 -2 -3 -2 -1 0 -0 -1 -1 2 4 4 4 3 2 2 1 1 -1 -1 -1 -1 0 1 1 2 2 1 1 0 -0 -1 -2 -2 -3 -3 -2 -1 -0 0 1 1 1 1 2 2 3 2 0 -2 -1 -0 0 1 5 10 13 9 1 -1 1 0 -4 -4 -3 -0 -1 -3 -3 -2 -1 -1 -0 2 2 -1 -4 -3 -1 2 3
-1 -1 -1 -0 -1 -1 -2 -3 -2 -2 -2 -1 -2 -2 -1 2 3 3 3 2 2 2 2 1 0 -0 0 1 1 1 1 1 1 1 0 -0 -1 -2 -2 -3 -3 -3 -1 -0 0 0 0 1 0 0 -1 -0 1 2 3 1 -1 -2 -0 3 -0 -10 -24 -20 -11 -2 -0 -1 -0 -1 -4 -6 -7 -5 -3 -3 -3 -3 -3 -5 -6 -5 -3 -3 -2 -1
-1 -2 -2 -1 -1 -1 -1 -1 -2 -2 -1 -1 -2 -2 -2 -0 1 2 2 2 2 2 3 2 2 1 1 2 2 2 2 1 1 1 1 0 -1 -1 -2 -3 -3 -2 -2 -1 -1 -1 -1 0 0 -0 -1 -2 -1 -0 0 1 2 3 4 2 -2 -4 -4 6 9 6 -3 -1 1 1 -2 -2 -1 0 1 -2 -2 -3 -4 -5 -3 0 2 3 2 0
-1 -1 -1 -1 -1 -0 0 -0 -1 -1 -1 -1 -1 -1 -1 -1 0 1 1 1 1 2 3 3 2 2 1 2 2 2 2 2 1 1 1 0 -0 -1 -1 -2 -3 -3 -2 -1 -1 -1 -1 -1 -1 -2 -3 -1 0 1 0 -1 0 2 3 1 0 3 14 18 12 4 -2 -1 -2 -4 -4 -1 0 -0 -3 -7 -8 -8 -7 -5 -1 1 -0 0 -0 -2
-1 -1 -1 -1 -0 -0 0 0 -0 -1 -1 -1 -1 -1 -1 -1 -1 -1 -0 -0 0 1 2 2 1 0 1 3 5 5 5 4 3 2 1 -0 -1 -1 -1 -2 -3 -3 -3 -2 -2 -1 -1 -2 -3 -4 -4 -2 -1 0 1 1 1 0 -1 -1 0 2 2 -5 -10 -10 -3 2 1 -1 -1 -1 -2 -5 -8 -9 -7 -6 -5 -3 -4 -5 -5 -4 -4 -4
-1 -1 -0 -0 0 0 0 0 0 0 -0 -1 -1 -2 -2 -2 -2 -2 -2 -1 0 2 4 1 -3 -4 -2 3 6 7 7 7 7 5 3 1 -1 -2 -2 -2 -2 -2 -2 -2 -2 -2 -1 -2 -3 -4 -4 -2 -1 0 0 -0 -0 0 0 1 1 1 -2 -7 -6 -2 4 3 1 -0 0 -3 -6 -8 -6 -0 2 2 -1 -2 -3 -5 -4 -2 -1 -0
-1 -1 -1 -0 0 1 1 1 1 1 0 -1 -1 -2 -2 -2 -2 -2 -3 -1 2 5 7 1 -5 -8 -6 -1 2 5 7 8 8 7 5 4 2 -0 -2 -2 -3 -3 -2 -2 -2 -2 -2 -2 -3 -3 -3 -2 -1 0 1 -0 -0 0 2 2 1 1 0 2 5 8 7 2 -1 -2 -4 -8 -10 -9 -3 0 -1 -4 -6 -6 -5 -4 -1 -1 -1 -1
-1 -1 -1 -1 -0 1 1 1 1 1 0 -0 -1 -2 -2 -1 -1 -1 -2 -1 3 6 6 -1 -6 -8 -6 -2 2 6 10 10 8 6 5 5 4 2 -0 -2 -3 -3 -3 -3 -2 -2 -2 -2 -3 -3 -3 -2 -2 -1 -2 -1 -1 0 0 -0 -0 0 1 3 3 3 1 -1 -2 -2 -4 -4 -1 3 5 -3 -10 -13 -11 -7 -5 -3 -2 -3 -3 -4
-0 -1 -1 -1 -1 0 1 1 1 1 0 -0 -1 -2 -2 -1 0 1 0 1 3 4 3 -3 -6 -6 -1 3 6 8 9 7 5 3 1 1 0 -1 -2 -3 -4 -4 -4 -4 -4 -4 -3 -3 -3 -2 -2 -2 -2 -2 -3 -3 -3 -3 -3 -2 -0 1 2 0 -1 -1 -2 -1 -2 -2 -3 -1 1 2 -1 -8 -10 -7 -2 -2 -2 -2 -3 -3 -2 -2
Height
5290 5287 5283 5279 5275 5272 5269 5266 5263 5261 5259 5258 5256 5255 5253 5252 5251 5250 5249 5248 5248 5248 5249 5249 5250 5251 5253 5254 5256 5258 5260 5263 5265 5268 5271 5274 5278 5282 5286 5291 5296 5301 5306 5310 5314 5318 5323 5328 5334 5340 5347 5354 5361 5368 5374 5380 5388 5397 5407 5417 5426 5435 5443 5453 5462 5471 5480 5489 5498 5506 5514 5522 5530 5538 5546 5553 5561 5569 5576 5585 5593 5601 5609 5616 5623 5629
5289 5286 5282 5278 5275 5272 5269 5265 5263 5260 5258 5257 5255 5253 5252 5250 5249 5248 5248 5247 5247 5247 5247 5248 5248 5249 5251 5252 5254 5256 5258 5260 5263 5265 5268 5272 5275 5279 5283 5288 5293 5298 5303 5308 5312 5316 5320 5324 5330 5337 5343 5350 5357 5363 5368 5375 5383 5393 5403 5412 5421 5430 5439 5449 5458 5468 5477 5486 5494 5502 5510 5518 5526 5533 5541 5549 5557 5564 5572 5580 5589 5598 5606 5613 5620 5627
5288 5285 5282 5278 5274 5271 5268 5265 5262 5259 5257 5255 5254 5252 5250 5249 5248 5247 5247 5246 5246 5246 5246 5246 5247 5248 5249 5250 5252 5254 5256 5258 5260 5263 5266 5269 5273 5276 5281 5285 5290 5295 5301 5305 5309 5313 5317 5322 5327 5333 5339 5346 5352 5357 5363 5370 5380 5390 5399 5409 5418 5427 5436 5446 5456 5465 5474 5483 5491 5499 5506 5514 5522 5530 5538 5546 5553 5561 5568 5577 5585 5594 5603 5611 5618 5624
5287 5283 5280 5277 5274 5271 5268 5264 5261 5258 5256 5254 5253 5251 5249 5248 5246 5246 5245 5245 5244 5244 5244 5245 5245 5246 5247 5248 5250 5252 5254 5256 5258 5261 5263 5267 5270 5274 5278 5283 5287 5293 5298 5303 5307 5311 5315 5319 5323 5328 5335 5341 5346 5352 5357 5366 5375 5385 5394 5403 5413 5422 5432 5443 5453 5462 5471 5479 5488 5495 5503 5511 5519 5527 5535 5543 5551 5558 5566 5573 5582 5591 5599 5607 5614 5621
5285 5282 5278 5275 5273 5269 5267 5263 5260 5258 5255 5253 5252 5250 5248 5246 5245 5244 5243 5243 5243 5243 5243 5243 5244 5244 5245 5247 5248 5249 5252 5254 5256 5259 5262 5265 5268 5272 5276 5280 5285 5290 5294 5299 5304 5308 5312 5316 5320 5324 5329 5335 5340 5345 5351 5361 5370 5379 5388 5397 5407 5417 5427 5437 5447 5457 5466 5474 5483 5491 5500 5508 5515 5523 5532 5540 5548 5555 5563 5570 5578 5587 5595 5603 5610 5618
5285 5281 5277 5274 5271 5268 5265 5262 5259 5257 5254 5253 5251 5249 5247 5245 5244 5243 5242 5242 5242 5242 5242 5242 5243 5243 5244 5245 5246 5248 5250 5252 5254 5257 5260 5263 5266 5269 5273 5278 5282 5287 5292 5296 5301 5305 5308 5312 5315 5319 5323 5328 5334 5340 5348 5357 5365 5373 5383 5392 5402 5412 5422 5431 5441 5450 5459 5468 5477 5486 5494 5503 5511 5519 5528 5536 5544 5552 5559 5567 5575 5583 5591 5598 5606 5613
5284 5281 5277 5273 5270 5267 5264 5261 5258 5255 5253 5252 5250 5248 5246 5244 5243 5242 5241 5241 5240 5240 5240 5241 5241 5242 5242 5243 5244 5246 5248 5250 5253 5255 5258 5261 5264 5267 5271 5275 5280 5284 5289 5293 5297 5301 5304 5307 5310 5314 5318 5324 5330 5338 5346 5355 5363 5371 5380 5389 5398 5407 5416 5426 5435 5444 5453 5462 5472 5481 5489 5498 5506 5514 5523 5531 5539 5547 5555 5563 5571 5579 5586 5593 5601 5608
5282 5279 5276 5273 5269 5266 5263 5260 5257 5254 5252 5250 5249 5247 5245 5243 5242 5241 5240 5239 5239 5239 5239 5239 5240 5240 5241 5241 5243 5244 5246 5248 5250 5253 5256 5259 5262 5265 5269 5273 5277 5281 5286 5290 5293 5297 5300 5303 5306 5311 5316 5323 5331 5338 5346 5354 5362 5370 5378 5386 5395 5404 5413 5422 5431 5440 5449 5458 5467 5476 5485 5493 5502 5510 5518 5526 5534 5543 5551 5559 5567 5575 5582 5589 5596 5604
5281 5278 5275 5272 5268 5265 5262 5260 5257 5253 5251 5249 5247 5246 5244 5243 5241 5240 5239 5238 5238 5238 5238 5238 5238 5239 5239 5240 5241 5243 5244 5246 5248 5251 5254 5257 5260 5263 5266 5270 5274 5278 5282 5286 5290 5293 5296 5300 5304 5310 5317 5324 5332 5339 5346 5353 5360 5367 5375 5383 5392 5401 5410 5419 5428 5438 5446 5455 5464 5473 5482 5490 5498 5506 5514 5522 5530 5539 5547 5555 5563 5571 5578 5585 5592 5600
5279 5277 5273 5271 5268 5265 5261 5258 5256 5253 5250 5248 5246 5245 5243 5241 5240 5239 5238 5238 5237 5237 5237 5237 5237 5238 5238 5239 5240 5241 5243 5245 5247 5249 5252 5255 5258 5261 5264 5268 5271 5275 5279 5283 5287 5290 5294 5299 5304 5310 5317 5324 5331 5337 5344 5350 5357 5364 5372 5380 5389 5398 5408 5417 5426 5435 5444 5453 5462 5470 5479 5487 5495 5503 5510 5518 5526 5535 5543 5551 5559 5567 5574 5581 5588 5596
5277 5275 5272 5269 5267 5263 5260 5258 5255 5253 5250 5247 5245 5243 5242 5240 5239 5238 5237 5237 5236 5236 5236 5236 5236 5237 5237 5238 5239 5240 5242 5243 5246 5248 5251 5253 5256 5259 5262 5265 5268 5272 5276 5280 5284 5289 5293 5298 5304 5310 5316 5322 5328 5335 5341 5348 5355 5362 5370 5378 5387 5396 5406 5415 5424 5433 5442 5451 5459 5468 5476 5484 5491 5499 5506 5514 5522 5531 5539 5547 5555 5562 5569 5577 5584 5592
5275 5272 5269 5267 5264 5261 5258 5256 5253 5251 5248 5246 5244 5242 5241 5239 5238 5237 5236 5236 5235 5235 5235 5235 5235 5236 5236 5237 5238 5239 5240 5242 5244 5246 5249 5252 5254 5257 5260 5263 5267 5270 5274 5278 5283 5288 5292 5297 5302 5308 5313 5320 5326 5332 5339 5345 5352 5359 5367 5376 5384 5394 5403 5412 5421 5430 5439 5448 5456 5464 5472 5480 5487 5495 5502 5510 5518 5527 5535 5543 5550 5558 5565 5572 5580 5588
5273 5269 5267 5264 5261 5258 5256 5253 5250 5248 5246 5244 5242 5241 5239 5238 5237 5236 5235 5235 5234 5234 5234 5234 5235 5235 5235 5236 5237 5238 5239 5241 5243 5245 5247 5250 5253 5255 5258 5261 5265 5268 5273 5277 5281 5286 5291 5295 5300 5305 5311 5317 5323 5330 5336 5343 5349 5356 5363 5372 5380 5389 5399 5408 5418 5427 5436 5444 5453 5460 5468 5476 5483 5490 5498 5506 5514 5522 5530 5538 5546 5553 5560 5567 5575 5583
5269 5267 5264 5261 5259 5256 5253 5250 5248 5246 5244 5242 5241 5239 5238 5237 5236 5235 5234 5234 5233 5233 5234 5234 5234 5234 5234 5235 5236 5237 5238 5240 5242 5244 5246 5248 5251 5253 5256 5260 5263 5267 5271 5275 5280 5284 5289 5294 5299 5304 5310 5316 5322 5328 5334 5340 5347 5353 5360 5368 5376 5385 5394 5404 5413 5423 5432 5440 5448 5456 5464 5471 5479 5486 5494 5502 5509 5518 5526 5533 5541 5548 5555 5562 5570 5578
5268 5265 5262 5260 5257 5255 5252 5249 5247 5244 5243 5241 5239 5238 5237 5236 5235 5234 5233 5233 5233 5233 5233 5233 5233 5233 5234 5234 5235 5236 5238 5239 5241 5243 5245 5247 5249 5252 5255 5258 5262 5265 5269 5274 5278 5282 5287 5292 5297 5303 5308 5314 5320 5326 5332 5339 5345 5352 5358 5365 5373 5381 5390 5399 5408 5418 5427 5435 5444 5452 5460 5467 5475 5482 5489 5497 5505 5513 5521 5529 5537 5544 5551 5558 5566 5573
5267 5264 5261 5258 5256 5253 5251 5248 5245 5243 5241 5239 5238 5237 5236 5234 5233 5233 5232 5232 5232 5232 5232 5232 5232 5233 5233 5233 5234 5235 5237 5238 5240 5242 5244 5246 5248 5251 5254 5258 5261 5265 5268 5273 5276 5280 5285 5290 5295 5301 5306 5312 5318 5324 5330 5337 5343 5349 5356 5363 5370 5378 5386 5395 5404 5413 5421 5430 5438 5447 5455 5463 5470 5478 5485 5493 5501 5508 5517 5524 5532 5540 5547 5554 5562 5569
5267 5263 5260 5257 5254 5252 5249 5246 5244 5241 5239 5238 5237 5235 5234 5233 5233 5232 5231 5231 5231 5231 5231 5231 5232 5232 5232 5233 5233 5234 5236 5238 5239 5241 5243 5245 5248 5250 5253 5257 5260 5264 5267 5271 5275 5279 5283 5288 5293 5298 5304 5310 5315 5321 5327 5334 5340 5347 5353 5360 5367 5375 5383 5392 5400 5409 5417 5425 5433 5442 5450 5458 5466 5473 5481 5488 5496 5504 5512 5520 5528 5536 5543 5551 5558 5566
5265 5262 5258 5255 5253 5250 5247 5245 5242 5239 5238 5236 5235 5234 5233 5232 5232 5231 5230 5230 5230 5230 5230 5231 5231 5231 5232 5232 5233 5234 5235 5237 5239 5241 5243 5245 5247 5249 5252 5255 5259 5262 5266 5269 5273 5277 5282 5286 5291 5297 5302 5307 5313 5318 5324 5331 5338 5344 5350 5357 5364 5372 5380 5388 5397 5405 5413 5421 5429 5437 5445 5453 5461 5468 5476 5484 5492 5500 5508 5516 5524 5532 5539 5547 5554 5562
5264 5261 5257 5254 5251 5248 5246 5243 5240 5238 5236 5234 5233 5233 5232 5231 5230 5230 5229 5229 5229 5229 5229 5230 5230 5230 5231 5231 5232 5233 5234 5236 5238 5240 5242 5244 5246 5249 5252 5255 5258 5262 5265 5268 5272 5275 5279 5284 5289 5294 5299 5305 5310 5316 5322 5328 5335 5341 5348 5354 5361 5368 5377 5385 5393 5401 5409 5417 5425 5433 5440 5448 5456 5464 5472 5480 5488 5496 5504 5512 5520 5528 5535 5543 5550 5558
5263 5260 5257 5253 5250 5247 5244 5242 5239 5237 5235 5233 5232 5232 5231 5230 5229 5229 5229 5228 5228 5228 5228 5229 5229 5229 5229 5230 5231 5233 5234 5236 5238 5240 5241 5243 5246 5248 5251 5254 5257 5261 5264 5267 5270 5273 5278 5283 5288 5293 5298 5303 5308 5314 5320 5326 5333 5339 5346 5352 5358 5366 5374 5382 5390 5398 5406 5414 5422 5429 5437 5445 5452 5460 5468 5476 5485 5493 5501 5509 5517 5524 5531 5539 5546 5554
5262 5258 5256 5253 5249 5246 5243 5241 5238 5236 5234 5232 5231 5230 5229 5229 5228 5228 5228 5228 5228 5228 5228 5228 5228 5228 5229 5230 5231 5232 5233 5236 5238 5239 5241 5243 5245 5248 5250 5253 5256 5259 5262 5265 5268 5272 5276 5281 5286 5291 5296 5301 5307 5312 5318 5324 5331 5337 5344 5350 5357 5364 5371 5379 5387 5395 5403 5411 5419 5427 5434 5442 5449 5457 5465 5473 5482 5490 5498 5506 5513 5521 5528 5535 5543 5550
5261 5258 5254 5252 5248 5245 5242 5240 5237 5235 5233 5231 5230 5229 5228 5228 5228 5227 5227 5227 5227 5227 5227 5227 5227 5228 5229 5230 5231 5232 5233 5235 5237 5239 5241 5243 5245 5247 5249 5252 5255 5258 5261 5264 5267 5271 5275 5280 5285 5289 5294 5300 5305 5310 5316 5322 5329 5335 5342 5348 5354 5361 5369 5377 5384 5393 5400 5408 5416 5424 5432 5440 5447 5455 5463 5471 5479 5487 5495 5503 5510 5518 5525 5532 5539 5547
5260 5257 5253 5250 5247 5244 5241 5239 5236 5234 5232 5230 5229 5228 5228 5227 5227 5226 5226 5226 5226 5226 5226 5227 5227 5228 5229 5229 5230 5231 5233 5234 5237 5239 5241 5242 5244 5246 5249 5252 5255 5257 5260 5263 5266 5270 5274 5279 5283 5288 5293 5298 5303 5308 5314 5320 5326 5333 5339 5345 5352 5358 5366 5374 5381 5389 5397 5405 5413 5421 5429 5437 5445 5453 5461 5468 5477 5485 5493 5500 5508 5515 5522 5528 5536 5543
5259 5256 5252 5249 5246 5243 5240 5238 5235 5233 5231 5230 5229 5228 5227 5227 5226 5226 5226 5225 5225 5226 5226 5227 5227 5228 5228 5229 5230 5231 5233 5234 5236 5238 5240 5242 5243 5245 5248 5251 5254 5256 5258 5262 5265 5269 5274 5278 5282 5287 5291 5296 5301 5307 5312 5318 5324 5330 5337 5343 5349 5356 5363 5371 5378 5386 5394 5402 5409 5417 5425 5433 5441 5449 5458 5466 5474 5482 5490 5498 5505 5512 5518 5525 5533 5540
5258 5254 5251 5248 5245 5243 5240 5238 5235 5233 5232 5231 5230 5229 5227 5226 5225 5225 5224 5224 5225 5225 5226 5226 5226 5227 5227 5228 5230 5231 5232 5234 5236 5238 5240 5241 5243 5245 5248 5251 5253 5255 5258 5262 5265 5269 5273 5277 5281 5285 5290 5294 5299 5304 5310 5315 5321 5328 5334 5340 5347 5353 5360 5368 5375 5383 5390 5398 5406 5413 5422 5429 5438 5446 5454 5462 5470 5478 5486 5494 5501 5508 5515 5522 5529 5536
5258 5254 5251 5248 5245 5242 5240 5237 5235 5233 5232 5229 5228 5226 5225 5225 5224 5224 5224 5224 5224 5224 5225 5225 5226 5226 5227 5228 5229 5231 5232 5234 5235 5237 5239 5241 5243 5245 5247 5250 5253 5255 5258 5262 5265 5269 5273 5276 5279 5283 5288 5293 5297 5302 5308 5313 5319 5326 5332 5338 5344 5350 5357 5364 5371 5379 5387 5394 5402 5410 5418 5426 5434 5442 5450 5458 5467 5475 5483 5490 5498 5504 5511 5518 5525 5533
5258 5254 5251 5248 5245 5242 5239 5236 5234 5232 5230 5228 5227 5226 5225 5224 5224 5223 5223 5223 5223 5223 5224 5225 5225 5226 5227 5228 5229 5230 5232 5234 5235 5237 5239 5241 5243 5244 5247 5250 5253 5255 5258 5261 5264 5268 5271 5274 5278 5282 5286 5291 5295 5301 5306 5312 5317 5323 5329 5335 5341 5347 5353 5360 5368 5375 5383 5391 5398 5406 5414 5422 5430 5438 5446 5454 5463 5471 5479 5487 5494 5501 5508 5515 5522 5529
5257 5254 5251 5248 5244 5242 5239 5236 5234 5232 5230 5228 5227 5225 5224 5224 5223 5223 5222 5222 5223 5223 5224 5224 5225 5226 5227 5228 5229 5230 5232 5234 5235 5237 5239 5241 5243 5244 5247 5249 5253 5255 5258 5260 5263 5267 5270 5273 5277 5280 5284 5289 5294 5299 5305 5310 5315 5321 5327 5332 5338 5345 5352 5359 5366 5373 5381 5389 5396 5404 5411 5419 5427 5434 5443 5451 5459 5467 5475 5483 5490 5497 5504 5511 5518 5525
5257 5254 5251 5248 5244 5241 5238 5236 5233 5232 5229 5228 5227 5225 5224 5223 5223 5222 5222 5222 5223 5223 5223 5224 5225 5226 5227 5228 5229 5230 5232 5233 5235 5237 5239 5241 5242 5244 5247 5250 5252 5255 5257 5260 5263 5267 5269 5273 5276 5280 5284 5288 5293 5298 5303 5308 5313 5319 5325 5331 5338 5344 5351 5358 5366 5373 5380 5388 5395 5402 5409 5416 5424 5431 5439 5447 5455 5463 5471 5478 5485 5493 5500 5507 5515 5522
5257 5254 5251 5248 5244 5241 5238 5236 5233 5231 5229 5228 5226 5225 5224 5223 5223 5222 5222 5222 5222 5222 5223 5223 5224 5225 5226 5228 5229 5230 5232 5233 5235 5237 5239 5241 5242 5244 5247 5250 5252 5254 5257 5260 5263 5266 5269 5272 5275 5279 5283 5288 5293 5297 5302 5307 5312 5317 5323 5329 5336 5343 5350 5357 5364 5371 5378 5386 5393 5400 5407 5414 5421 5428 5436 5444 5451 5459 5467 5474 5481 5488 5496 5503 5511 5519
5256 5253 5250 5247 5244 5241 5238 5235 5233 5231 5229 5227 5226 5225 5223 5223 5222 5221 5221 5221 5222 5222 5223 5223 5224 5225 5226 5228 5229 5230 5232 5233 5235 5237 5239 5240 5242 5244 5247 5249 5252 5255 5257 5260 5263 5266 5268 5271 5275 5279 5283 5287 5292 5296 5301 5305 5311 5316 5322 5328 5334 5341 5347 5353 5360 5368 5375 5382 5389 5397 5404 5411 5418 5426 5433 5440 5448 5455 5463 5470 5477 5484 5492 5500 5508 5516
5256 5253 5250 5247 5244 5241 5238 5235 5233 5231 5229 5227 5226 5224 5223 5222 5222 5221 5221 5221 5221 5222 5223 5223 5224 5225 5226 5228 5229 5230 5232 5233 5235 5237 5239 5241 5243 5245 5247 5250 5252 5255 5258 5260 5262 5265 5268 5271 5274 5278 5283 5287 5291 5295 5299 5304 5309 5314 5320 5326 5333 5338 5344 5350 5357 5364 5371 5378 5386 5393 5400 5408 5415 5422 5429 5437 5444 5452 5459 5466 5473 5481 5489 5498 5506 5514
5255 5253 5250 5247 5244 5241 5238 5235 5233 5231 5228 5227 5225 5224 5223 5222 5221 5221 5221 5221 5221 5222 5223 5223 5224 5225 5226 5227 5229 5230 5232 5233 5235 5237 5239 5241 5243 5245 5248 5250 5252 5255 5257 5260 5262 5265 5267 5270 5273 5277 5281 5285 5289 5293 5298 5303 5308 5313 5318 5324 5330 5336 5342 5348 5354 5361 5368 5375 5382 5389 5396 5403 5411 5418 5425 5433 5440 5448 5455 5462 5470 5478 5486 5494 5503 5511
5255 5253 5250 5247 5244 5241 5238 5236 5233 5231 5228 5227 5225 5224 5223 5222 5221 5221 5220 5220 5221 5222 5223 5223 5224 5225 5226 5227 5229 5230 5232 5233 5235 5238 5240 5242 5244 5246 5248 5250 5252 5255 5257 5260 5262 5265 5268 5270 5273 5277 5280 5284 5288 5292 5297 5301 5306 5311 5316 5322 5328 5333 5339 5345 5352 5359 5365 5372 5379 5386 5393 5400 5407 5414 5421 5429 5436 5444 5452 5459 5467 5475 5483 5491 5499 5508
5255 5253 5250 5248 5245 5242 5239 5236 5233 5231 5228 5227 5225 5224 5223 5222 5221 5221 5221 5220 5221 5221 5222 5223 5224 5226 5227 5228 5229 5230 5232 5234 5236 5238 5240 5242 5244 5246 5248 5250 5252 5254 5257 5259 5262 5264 5267 5270 5273 5277 5280 5283 5287 5291 5296 5300 5304 5309 5314 5319 5325 5331 5337 5343 5349 5356 5363 5369 5376 5383 5390 5397 5404 5411 5418 5425 5433 5441 5448 5456 5464 5472 5480 5488 5496 5504
5255 5253 5250 5247 5245 5242 5239 5236 5233 5231 5229 5227 5225 5224 5223 5222 5222 5221 5221 5221 5221 5221 5222 5223 5224 5226 5227 5228 5229 5231 5232 5234 5236 5238 5240 5242 5244 5246 5248 5250 5252 5254 5257 5259 5261 5263 5266 5269 5272 5276 5279 5283 5287 5290 5294 5298 5303 5308 5313 5318 5323 5328 5334 5340 5346 5353 5360 5367 5374 5381 5387 5394 5401 5408 5415 5423 5430 5438 5446 5453 5461 5469 5477 5485 5493 5501
5255 5252 5250 5247 5244 5242 5239 5236 5234 5231 5229 5228 5226 5224 5223 5223 5222 5221 5221 5221 5221 5222 5223 5223 5224 5226 5227 5228 5229 5231 5233 5235 5237 5238 5240 5242 5244 5246 5248 5250 5252 5254 5257 5259 5261 5263 5266 5269 5272 5275 5279 5282 5285 5289 5293 5298 5302 5307 5312 5317 5322 5327 5332 5338 5344 5350 5357 5364 5371 5378 5384 5392 5398 5405 5412 5419 5427 5434 5442 5450 5458 5466 5473 5481 5489 5497
5255 5252 5249 5247 5244 5242 5239 5237 5234 5232 5230 5228 5227 5225 5224 5223 5223 5222 5222 5221 5222 5222 5223 5224 5225 5226 5227 5228 5230 5231 5233 5235 5237 5239 5241 5243 5244 5246 5248 5250 5252 5254 5257 5258 5261 5263 5266 5269 5272 5275 5278 5281 5284 5287 5291 5296 5301 5306 5310 5315 5319 5325 5330 5336 5342 5348 5355 5362 5368 5375 5381 5389 5396 5403 5409 5416 5423 5431 5438 5446 5454 5462 5469 5477 5485 5493
5255 5252 5249 5247 5244 5242 5240 5237 5235 5233 5231 5229 5227 5226 5225 5224 5223 5223 5222 5222 5222 5223 5223 5224 5226 5227 5228 5229 5230 5232 5234 5236 5238 5239 5241 5243 5244 5247 5248 5250 5252 5254 5257 5259 5261 5263 5266 5268 5271 5274 5277 5280 5283 5287 5291 5295 5299 5303 5307 5312 5317 5322 5328 5333 5340 5346 5353 5359 5365 5372 5379 5386 5393 5400 5407 5414 5421 5429 5437 5444 5452 5459 5466 5473 5481 5488
5254 5252 5249 5247 5244 5243 5240 5238 5236 5233 5232 5230 5228 5227 5226 5225 5224 5223 5223 5223 5223 5223 5224 5225 5226 5228 5228 5230 5231 5233 5234 5236 5238 5240 5241 5243 5245 5247 5249 5251 5253 5255 5257 5259 5262 5264 5266 5268 5270 5273 5275 5278 5282 5286 5290 5294 5297 5301 5305 5310 5316 5321 5326 5332 5337 5343 5350 5356 5363 5370 5377 5384 5391 5398 5404 5412 5419 5427 5434 5442 5449 5456 5463 5471 5478 5485
5254 5252 5250 5247 5245 5243 5240 5238 5236 5234 5233 5230 5229 5228 5227 5226 5225 5225 5224 5224 5224 5224 5225 5226 5227 5228 5229 5231 5232 5233 5235 5237 5238 5240 5242 5243 5245 5247 5249 5251 5253 5255 5257 5259 5261 5263 5265 5268 5270 5273 5276 5278 5281 5284 5288 5292 5295 5300 5304 5310 5314 5319 5324 5329 5335 5341 5347 5353 5360 5367 5374 5381 5388 5395 5402 5409 5416 5424 5431 5438 5445 5453 5460 5468 5475 5483
5255 5252 5250 5248 5245 5243 5240 5238 5237 5235 5233 5232 5230 5229 5228 5228 5227 5226 5226 5225 5225 5226 5226 5227 5228 5230 5231 5232 5233 5234 5236 5237 5239 5240 5242 5244 5245 5247 5249 5251 5253 5255 5257 5259 5261 5263 5265 5267 5269 5272 5274 5277 5280 5283 5287 5290 5294 5298 5303 5308 5311 5315 5320 5327 5333 5338 5345 5351 5358 5364 5371 5378 5385 5392 5399 5406 5413 5420 5427 5435 5442 5450 5458 5465 5472 5480
5255 5253 5250 5248 5246 5243 5241 5239 5237 5235 5234 5233 5231 5230 5229 5228 5228 5227 5227 5226 5226 5227 5228 5228 5230 5231 5232 5233 5234 5236 5237 5238 5240 5241 5243 5244 5246 5247 5249 5251 5252 5254 5257 5259 5261 5263 5265 5267 5269 5271 5273 5276 5279 5282 5286 5289 5293 5297 5301 5305 5309 5313 5319 5325 5331 5336 5343 5349 5355 5362 5368 5375 5382 5389 5396 5403 5410 5417 5425 5433 5440 5448 5455 5463 5471 5478
5255 5253 5251 5248 5246 5243 5241 5239 5238 5236 5234 5233 5232 5231 5230 5229 5228 5228 5228 5228 5228 5228 5229 5230 5231 5232 5233 5234 5236 5237 5238 5239 5241 5242 5243 5245 5246 5247 5249 5251 5252 5254 5256 5258 5260 5262 5264 5266 5268 5270 5273 5275 5278 5281 5284 5288 5292 5296 5300 5303 5308 5314 5320 5324 5329 5334 5340 5346 5352 5359 5366 5373 5379 5385 5392 5399 5406 5414 5422 5430 5437 5444 5452 5459 5468 5476
5255 5253 5251 5249 5247 5244 5242 5240 5238 5237 5235 5234 5233 5232 5230 5229 5229 5229 5228 5228 5228 5229 5230 5231 5232 5233 5234 5236 5237 5238 5240 5241 5242 5243 5244 5245 5247 5248 5249 5250 5252 5254 5256 5258 5259 5261 5263 5265 5267 5269 5272 5275 5277 5280 5283 5287 5290 5294 5298 5302 5307 5312 5316 5320 5325 5331 5338 5344 5350 5357 5363 5369 5375 5382 5389 5397 5405 5412 5419 5426 5433 5441 5448 5456 5464 5472
5256 5253 5251 5249 5247 5245 5243 5241 5239 5237 5236 5235 5234 5233 5231 5230 5230 5229 5229 5229 5229 5230 5231 5232 5233 5235 5236 5237 5239 5240 5241 5242 5243 5244 5245 5246 5247 5248 5249 5250 5252 5253 5255 5257 5259 5261 5263 5264 5266 5268 5271 5274 5276 5279 5282 5285 5289 5292 5296 5300 5305 5309 5313 5317 5323 5329 5335 5341 5348 5354 5360 5366 5373 5381 5388 5396 5403 5409 5416 5423 5430 5438 5446 5454 5462 5470
5256 5253 5251 5249 5247 5245 5243 5241 5239 5238 5236 5235 5234 5233 5232 5231 5231 5230 5230 5230 5230 5231 5232 5233 5234 5236 5237 5238 5240 5241 5242 5243 5244 5245 5246 5247 5248 5248 5249 5250 5251 5253 5254 5256 5258 5260 5262 5263 5265 5268 5270 5273 5275 5278 5281 5284 5287 5291 5294 5298 5303 5307 5311 5317 5323 5328 5333 5339 5345 5351 5357 5364 5371 5379 5386 5392 5399 5406 5413 5419 5427 5436 5444 5452 5460 5468
5256 5254 5252 5250 5248 5246 5243 5242 5240 5238 5237 5235 5234 5233 5233 5232 5231 5231 5231 5231 5231 5232 5233 5234 5235 5236 5237 5239 5241 5242 5243 5244 5245 5245 5246 5247 5248 5248 5249 5250 5251 5252 5253 5255 5257 5258 5260 5262 5264 5267 5269 5271 5274 5276 5279 5282 5285 5289 5292 5296 5300 5305 5310 5315 5320 5326 5331 5336 5342 5348 5354 5362 5369 5377 5382 5388 5395 5403 5410 5418 5426 5434 5442 5450 5457 5465
5256 5254 5252 5250 5248 5246 5244 5242 5240 5239 5237 5236 5234 5234 5233 5233 5232 5232 5232 5232 5233 5234 5235 5235 5235 5236 5237 5239 5241 5242 5243 5244 5245 5245 5246 5246 5247 5248 5249 5250 5251 5252 5253 5254 5256 5257 5259 5261 5263 5265 5267 5270 5272 5275 5277 5280 5283 5287 5290 5294 5298 5303 5307 5312 5317 5322 5327 5333 5339 5345 5352 5359 5366 5372 5378 5385 5393 5401 5409 5417 5424 5432 5440 5448 5455 5463
5257 5255 5253 5251 5248 5247 5244 5243 5241 5239 5238 5237 5236 5235 5234 5234 5233 5233 5233 5233 5234 5236 5236 5237 5237 5237 5238 5239 5241 5242 5243 5244 5245 5245 5245 5246 5247 5247 5248 5249 5250 5251 5252 5253 5254 5256 5258 5260 5262 5264 5266 5268 5271 5273 5276 5278 5281 5284 5288 5293 5297 5301 5305 5309 5314 5319 5325 5330 5336 5342 5348 5355 5362 5368 5374 5383 5391 5399 5407 5414 5422 5430 5438 5445 5453 5461
5257 5255 5253 5251 5249 5247 5245 5243 5241 5240 5239 5238 5237 5236 5236 5235 5235 5235 5235 5235 5236 5237 5237 5237 5238 5238 5239 5241 5242 5243 5244 5244 5244 5244 5245 5245 5246 5246 5247 5248 5248 5249 5250 5252 5253 5254 5256 5258 5260 5262 5265 5267 5269 5271 5274 5276 5279 5283 5287 5291 5294 5298 5303 5307 5312 5317 5323 5327 5333 5338 5345 5352 5359 5366 5374 5382 5389 5396 5403 5411 5419 5427 5435 5443 5451 5459